Location: Ariel
(45.9570°N, 122.5700°W)
Time: 03:15:02
(UTC-07:00)

Transit 4A - Pass Details

Date: 24 July 2019
Orbit: 864 x 981 km, 66.8° (Epoch: 25 August)

Event Time Altitude Azimuth Distance (km) Brightness Sun altitude
Rises 10:26:37 0° 327° (NNW) 3,674 10.7 46.5°
Reaches altitude 10° 10:29:13 10° 328° (NNW) 2,712 10.1 46.9°
Maximum altitude 10:35:35 81° 56° (NE) 965 9.1 47.9°
Drops below altitude 10° 10:41:43 10° 144° (SE) 2,621 11.0 48.9°
Sets 10:44:11 0° 146° (SE) 3,542 11.5 49.3°
